TimeMDT,TemperatureF,Dew PointF,Humidity,Sea Level PressureIn,VisibilityMPH,Wind Direction,Wind SpeedMPH,Gust SpeedMPH,PrecipitationIn,Events,Conditions,WindDirDegrees,DateUTC
12:15 AM,39.2,30.2,70,30.10,6.0,SE,4.6,-,N/A,,Clear,130,2013-11-02 06:15:00
12:35 AM,41.0,30.2,65,30.09,10.0,SSE,9.2,-,N/A,,Clear,150,2013-11-02 06:35:00
12:55 AM,41.0,30.2,65,30.08,10.0,SE,8.1,-,N/A,,Clear,130,2013-11-02 06:55:00
1:15 AM,39.2,30.2,70,30.08,10.0,ESE,5.8,-,N/A,,Clear,110,2013-11-02 07:15:00
1:55 AM,39.2,30.2,70,30.07,10.0,ESE,9.2,-,N/A,,Clear,120,2013-11-02 07:55:00
2:15 AM,42.8,30.2,61,30.06,10.0,SSE,8.1,-,N/A,,Clear,150,2013-11-02 08:15:00
2:35 AM,39.2,30.2,70,30.05,10.0,SE,10.4,-,N/A,,Clear,140,2013-11-02 08:35:00
2:55 AM,41.0,30.2,65,30.04,10.0,SE,10.4,-,N/A,,Clear,130,2013-11-02 08:55:00
3:15 AM,41.0,30.2,65,30.04,10.0,SE,9.2,-,N/A,,Clear,140,2013-11-02 09:15:00
3:35 AM,41.0,30.2,65,30.03,10.0,SE,9.2,-,N/A,,Clear,140,2013-11-02 09:35:00
3:55 AM,39.2,30.2,70,30.03,10.0,SSE,4.6,-,N/A,,Clear,150,2013-11-02 09:55:00
4:15 AM,39.2,30.2,70,30.02,10.0,South,3.5,-,N/A,,Clear,190,2013-11-02 10:15:00
4:35 AM,39.2,28.4,65,30.01,10.0,SSE,8.1,-,N/A,,Clear,160,2013-11-02 10:35:00
4:55 AM,39.2,28.4,65,30.00,10.0,SSE,9.2,-,N/A,,Clear,150,2013-11-02 10:55:00
5:15 AM,41.0,28.4,61,29.99,10.0,South,12.7,-,N/A,,Clear,170,2013-11-02 11:15:00
5:35 AM,39.2,28.4,65,29.98,10.0,SSE,8.1,-,N/A,,Clear,150,2013-11-02 11:35:00
5:55 AM,39.2,28.4,65,29.97,10.0,SSE,11.5,-,N/A,,Clear,150,2013-11-02 11:55:00
6:35 AM,39.2,28.4,65,29.96,10.0,SSE,10.4,-,N/A,,Clear,160,2013-11-02 12:35:00
6:55 AM,39.2,28.4,65,29.95,10.0,SSE,12.7,-,N/A,,Clear,150,2013-11-02 12:55:00
7:15 AM,39.2,28.4,65,29.95,10.0,SSE,10.4,-,N/A,,Clear,150,2013-11-02 13:15:00
7:35 AM,37.4,28.4,70,29.94,10.0,SSE,9.2,-,N/A,,Clear,150,2013-11-02 13:35:00
7:55 AM,37.4,26.6,65,29.93,10.0,SSE,8.1,-,N/A,,Clear,150,2013-11-02 13:55:00
8:15 AM,37.4,26.6,65,29.92,10.0,South,9.2,-,N/A,,Clear,170,2013-11-02 14:15:00
8:35 AM,37.4,28.4,70,29.91,10.0,SSE,9.2,-,N/A,,Clear,150,2013-11-02 14:35:00
8:55 AM,39.2,28.4,65,29.91,10.0,SSE,9.2,-,N/A,,Clear,150,2013-11-02 14:55:00
9:15 AM,41.0,28.4,61,29.91,10.0,SSE,10.4,-,N/A,,Clear,160,2013-11-02 15:15:00
9:35 AM,42.8,30.2,61,29.91,10.0,SSE,8.1,-,N/A,,Clear,150,2013-11-02 15:35:00
9:55 AM,42.8,30.2,61,29.90,10.0,SE,9.2,-,N/A,,Clear,140,2013-11-02 15:55:00
10:15 AM,46.4,32.0,57,29.89,10.0,SSE,11.5,-,N/A,,Clear,150,2013-11-02 16:15:00
10:35 AM,48.2,32.0,54,29.88,10.0,SSE,15.0,-,N/A,,Clear,150,2013-11-02 16:35:00
10:55 AM,50.0,32.0,50,29.88,10.0,SSE,19.6,26.5,N/A,,Mostly Cloudy,150,2013-11-02 16:55:00
11:15 AM,50.0,32.0,50,29.86,10.0,SSE,18.4,21.9,N/A,,Overcast,150,2013-11-02 17:15:00
11:35 AM,51.8,33.8,50,29.85,10.0,SSE,18.4,24.2,N/A,,Overcast,150,2013-11-02 17:35:00
11:55 AM,51.8,33.8,50,29.84,10.0,SE,16.1,26.5,N/A,,Overcast,140,2013-11-02 17:55:00
12:15 PM,53.6,33.8,47,29.84,10.0,SE,12.7,-,N/A,,Overcast,140,2013-11-02 18:15:00
12:35 PM,53.6,35.6,51,29.84,10.0,SSE,12.7,-,N/A,,Overcast,150,2013-11-02 18:35:00
12:55 PM,53.6,35.6,51,29.83,10.0,SE,5.8,-,N/A,,Overcast,140,2013-11-02 18:55:00
1:15 PM,53.6,37.4,54,29.83,10.0,WNW,4.6,-,N/A,,Overcast,290,2013-11-02 19:15:00
1:35 PM,53.6,37.4,54,29.84,10.0,NW,12.7,-,N/A,,Overcast,310,2013-11-02 19:35:00
1:55 PM,48.2,39.2,71,29.84,10.0,WNW,9.2,-,N/A,,Overcast,300,2013-11-02 19:55:00
2:15 PM,46.4,37.4,71,29.84,10.0,NW,6.9,-,N/A,,Overcast,310,2013-11-02 20:15:00
2:35 PM,46.4,35.6,66,29.84,10.0,NW,9.2,-,N/A,,Overcast,310,2013-11-02 20:35:00
2:55 PM,48.2,35.6,62,29.84,10.0,NW,3.5,-,N/A,,Overcast,310,2013-11-02 20:55:00
3:15 PM,50.0,37.4,62,29.85,10.0,WNW,6.9,-,N/A,,Overcast,290,2013-11-02 21:15:00
3:35 PM,50.0,37.4,62,29.85,10.0,WNW,6.9,-,N/A,,Overcast,290,2013-11-02 21:35:00
3:55 PM,50.0,37.4,62,29.84,10.0,Calm,Calm,-,N/A,,Overcast,0,2013-11-02 21:55:00
4:15 PM,50.0,37.4,62,29.84,7.0,SSW,3.5,-,N/A,,Overcast,210,2013-11-02 22:15:00
4:35 PM,51.8,37.4,58,29.84,10.0,NNW,3.5,-,N/A,,Overcast,340,2013-11-02 22:35:00
4:55 PM,50.0,39.2,66,29.83,10.0,Calm,Calm,-,N/A,,Overcast,0,2013-11-02 22:55:00
5:15 PM,48.2,39.2,71,29.83,10.0,ESE,8.1,-,N/A,,Overcast,120,2013-11-02 23:15:00
5:35 PM,48.2,37.4,66,29.84,10.0,ESE,6.9,-,N/A,,Overcast,120,2013-11-02 23:35:00
5:55 PM,48.2,39.2,71,29.84,10.0,SE,4.6,-,N/A,,Overcast,130,2013-11-02 23:55:00
6:15 PM,50.0,39.2,66,29.83,10.0,Calm,Calm,-,N/A,,Overcast,0,2013-11-03 00:15:00
6:35 PM,51.8,35.6,54,29.84,10.0,West,12.7,-,N/A,,Scattered Clouds,280,2013-11-03 00:35:00
6:55 PM,48.2,35.6,62,29.84,10.0,North,11.5,-,N/A,,Clear,350,2013-11-03 00:55:00
7:15 PM,46.4,35.6,66,29.85,10.0,NNE,8.1,-,N/A,,Clear,30,2013-11-03 01:15:00
7:35 PM,46.4,33.8,62,29.86,10.0,Calm,Calm,-,N/A,,Scattered Clouds,0,2013-11-03 01:35:00
7:55 PM,44.6,33.8,66,29.86,10.0,North,3.5,-,N/A,,Scattered Clouds,350,2013-11-03 01:55:00
8:15 PM,44.6,33.8,66,29.87,10.0,WNW,4.6,-,N/A,,Partly Cloudy,290,2013-11-03 02:15:00
8:35 PM,44.6,32.0,61,29.88,10.0,WNW,8.1,-,N/A,,Clear,300,2013-11-03 02:35:00
8:55 PM,44.6,30.2,57,29.89,10.0,NW,6.9,-,N/A,,Clear,310,2013-11-03 02:55:00
9:15 PM,44.6,26.6,49,29.89,10.0,WNW,15.0,-,N/A,,Clear,290,2013-11-03 03:15:00
9:35 PM,46.4,24.8,43,29.89,10.0,WNW,12.7,-,N/A,,Clear,300,2013-11-03 03:35:00
9:55 PM,44.6,26.6,49,29.90,10.0,NNW,11.5,-,N/A,,Partly Cloudy,340,2013-11-03 03:55:00
10:15 PM,42.8,26.6,53,29.91,10.0,NNW,16.1,-,N/A,,Mostly Cloudy,330,2013-11-03 04:15:00
10:35 PM,44.6,24.8,46,29.91,10.0,NW,16.1,23.0,N/A,,Scattered Clouds,310,2013-11-03 04:35:00
10:55 PM,42.8,24.8,49,29.91,10.0,WNW,13.8,-,N/A,,Clear,290,2013-11-03 04:55:00
11:15 PM,42.8,23.0,46,29.92,10.0,West,9.2,-,N/A,,Clear,280,2013-11-03 05:15:00
11:35 PM,41.0,23.0,49,29.93,10.0,West,5.8,-,N/A,,Clear,270,2013-11-03 05:35:00
11:55 PM,39.2,24.8,56,29.93,10.0,WNW,12.7,-,N/A,,Clear,290,2013-11-03 05:55:00